| time (UTC) | temp F | wind direction | speed MPH | gust MPH | rain 1hr in | rain 24hr in | rain mn in | humidity % | barometer mb |
| 20260503223949 | 50 | 338 | 0.0 | 0.0 | 0.00 | 0.26 | 0.00 | 99 | 1012.7 |
| 20260503222945 | 50 | 338 | 0.0 | 0.0 | 0.00 | 0.26 | 0.00 | 99 | 1012.7 |
| 20260503221936 | 50 | 338 | 0.0 | 0.0 | 0.00 | 0.26 | 0.00 | 99 | 1012.8 |
| 20260503220929 | 50 | 338 | 0.0 | 0.0 | 0.00 | 0.26 | 0.00 | 99 | 1012.9 |
| 20260503215926 | 50 | 338 | 0.0 | 0.0 | 0.00 | 0.26 | 0.26 | 99 | 1013.0 |
| 20260503214916 | 50 | 338 | 0.0 | 0.0 | 0.00 | 0.26 | 0.26 | 99 | 1013.1 |
| 20260503213908 | 50 | 338 | 0.0 | 0.0 | 0.00 | 0.26 | 0.26 | 99 | 1013.0 |
| 20260503212901 | 50 | 338 | 0.0 | 0.0 | 0.00 | 0.26 | 0.26 | 99 | 1012.9 |
| 20260503211854 | 50 | 338 | 0.0 | 0.0 | 0.00 | 0.26 | 0.26 | 99 | 1012.9 |
| 20260503205841 | 50 | 338 | 0.0 | 0.0 | 0.00 | 0.26 | 0.26 | 99 | 1012.8 |
| 20260503204834 | 50 | 338 | 0.0 | 0.0 | 0.00 | 0.26 | 0.26 | 99 | 1012.7 |
| 20260503203828 | 51 | 338 | 0.0 | 0.0 | 0.00 | 0.26 | 0.26 | 99 | 1012.6 |
| 20260503202820 | 51 | 338 | 0.0 | 0.0 | 0.02 | 0.26 | 0.26 | 99 | 1012.7 |
| 20260503201813 | 51 | 338 | 0.0 | 0.0 | 0.02 | 0.26 | 0.26 | 99 | 1012.3 |
| 20260503200806 | 51 | 338 | 0.0 | 0.0 | 0.02 | 0.26 | 0.26 | 99 | 1012.2 |
| 20260503195758 | 51 | 338 | 0.0 | 0.0 | 0.02 | 0.26 | 0.26 | 99 | 1011.9 |
| 20260503194752 | 51 | 338 | 0.0 | 0.0 | 0.02 | 0.26 | 0.26 | 99 | 1012.0 |
| 20260503193746 | 51 | 338 | 0.0 | 0.0 | 0.02 | 0.26 | 0.26 | 99 | 1011.8 |
| 20260503192845 | 51 | 338 | 0.0 | 0.0 | 0.00 | 0.24 | 0.24 | 98 | 1012.0 |
| 20260503191836 | 51 | 338 | 0.0 | 0.0 | 0.00 | 0.24 | 0.24 | 99 | 1011.9 |
| 20260503190830 | 51 | 338 | 0.0 | 0.0 | 0.00 | 0.24 | 0.24 | 99 | 1011.8 |
| 20260503185826 | 51 | 338 | 0.0 | 0.0 | 0.00 | 0.24 | 0.24 | 95 | 1011.5 |
| 20260503184815 | 52 | 338 | 0.0 | 0.0 | 0.00 | 0.24 | 0.24 | 91 | 1011.2 |
| 20260503183809 | 53 | 338 | 0.0 | 0.0 | 0.00 | 0.24 | 0.24 | 94 | 1011.0 |
| 20260503182806 | 53 | 338 | 0.0 | 0.0 | 0.00 | 0.24 | 0.24 | 90 | 1011.2 |
| 20260503181755 | 54 | 338 | 0.0 | 0.0 | 0.00 | 0.26 | 0.24 | 91 | 1011.1 |
| 20260503180748 | 54 | 338 | 0.0 | 0.0 | 0.00 | 0.26 | 0.24 | 86 | 1011.1 |
| 20260503175741 | 54 | 338 | 0.0 | 0.0 | 0.00 | 0.26 | 0.24 | 87 | 1011.0 |
| 20260503174736 | 54 | 338 | 0.0 | 0.0 | 0.00 | 0.26 | 0.24 | 85 | 1010.9 |
| 20260503173728 | 54 | 338 | 0.0 | 0.0 | 0.00 | 0.26 | 0.24 | 86 | 1010.8 |
| 20260503172721 | 55 | 338 | 0.0 | 0.0 | 0.00 | 0.26 | 0.24 | 83 | 1010.8 |
| 20260503171714 | 55 | 338 | 0.0 | 0.0 | 0.00 | 0.26 | 0.24 | 83 | 1010.6 |
| 20260503170707 | 55 | 338 | 0.0 | 0.0 | 0.00 | 0.26 | 0.24 | 88 | 1010.7 |
| 20260503150725 | 54 | 158 | 0.0 | 0.0 | 0.02 | 0.33 | 0.16 | 99 | 1011.6 |
| 20260503090129 | 55 | 203 | 0.0 | 0.0 | 0.00 | 0.67 | 0.00 | 94 | 1013.6 |
| 20260503081056 | 55 | 225 | 0.0 | 0.0 | 0.00 | 0.67 | 0.00 | 99 | 1013.4 |
| 20260503072024 | 53 | 225 | 0.0 | 0.0 | 0.00 | 0.67 | 0.00 | 99 | 1013.7 |
| 20260503054918 | 51 | 270 | 0.0 | 0.0 | 0.00 | 0.67 | 0.00 | 99 | 1013.9 |
| 20260503053911 | 50 | 270 | 0.0 | 0.0 | 0.00 | 0.67 | 0.00 | 99 | 1013.8 |
| 20260503052904 | 50 | 270 | 0.0 | 0.0 | 0.00 | 0.67 | 0.00 | 99 | 1013.8 |
| 20260503051858 | 50 | 270 | 0.0 | 0.0 | 0.00 | 0.67 | 0.00 | 99 | 1013.7 |
| 20260503050850 | 50 | 270 | 0.0 | 0.0 | 0.00 | 0.67 | 0.00 | 99 | 1013.7 |
| 20260503045844 | 50 | 270 | 0.0 | 0.0 | 0.00 | 0.67 | 0.00 | 99 | 1013.7 |
| 20260503044836 | 50 | 270 | 0.0 | 0.0 | 0.00 | 0.67 | 0.00 | 99 | 1013.7 |
| 20260503043829 | 50 | 270 | 0.0 | 0.0 | 0.00 | 0.67 | 0.00 | 99 | 1013.8 |
| 20260503042824 | 50 | 270 | 0.0 | 0.0 | 0.00 | 0.67 | 0.00 | 99 | 1013.9 |
| 20260503040808 | 50 | 270 | 0.0 | 0.0 | 0.00 | 0.67 | 0.00 | 99 | 1013.9 |
| 20260503035804 | 50 | 270 | 0.0 | 0.0 | 0.00 | 0.67 | 0.00 | 99 | 1014.0 |
| 20260503034754 | 50 | 270 | 0.0 | 0.0 | 0.00 | 0.67 | 0.00 | 99 | 1014.0 |
| 20260503033747 | 50 | 270 | 0.0 | 0.0 | 0.00 | 0.67 | 0.00 | 99 | 1014.2 |
| 20260503032744 | 50 | 270 | 0.0 | 0.0 | 0.00 | 0.67 | 0.00 | 99 | 1014.2 |
| 20260503031733 | 49 | 270 | 0.0 | 0.0 | 0.00 | 0.67 | 0.00 | 99 | 1014.3 |
| 20260503030726 | 50 | 270 | 0.0 | 0.0 | 0.00 | 0.67 | 0.00 | 99 | 1014.2 |
| 20260503025719 | 50 | 270 | 0.0 | 0.0 | 0.00 | 0.67 | 0.00 | 99 | 1014.2 |
| 20260503024713 | 50 | 270 | 0.0 | 0.0 | 0.00 | 0.67 | 0.00 | 99 | 1014.2 |
| 20260503023705 | 49 | 270 | 0.0 | 0.0 | 0.00 | 0.67 | 0.00 | 99 | 1014.3 |
| 20260503022658 | 49 | 270 | 0.0 | 0.0 | 0.00 | 0.67 | 0.00 | 99 | 1014.4 |
| 20260503021651 | 50 | 270 | 0.0 | 0.0 | 0.00 | 0.67 | 0.00 | 99 | 1014.5 |
| 20260503015637 | 49 | 270 | 0.0 | 0.0 | 0.00 | 0.67 | 0.00 | 99 | 1014.5 |
| 20260503014630 | 49 | 270 | 0.0 | 0.0 | 0.00 | 0.67 | 0.00 | 99 | 1014.5 |
| 20260503013624 | 49 | 270 | 0.0 | 0.0 | 0.00 | 0.67 | 0.00 | 99 | 1014.7 |
| 20260503012617 | 49 | 270 | 0.0 | 0.0 | 0.00 | 0.67 | 0.00 | 99 | 1014.7 |
| 20260503011609 | 49 | 270 | 0.0 | 0.0 | 0.00 | 0.67 | 0.00 | 99 | 1014.9 |
| 20260503010604 | 49 | 270 | 0.0 | 0.0 | 0.00 | 0.67 | 0.00 | 99 | 1015.0 |
| 20260503004548 | 49 | 270 | 0.0 | 0.0 | 0.00 | 0.67 | 0.00 | 99 | 1015.2 |
| 20260503003544 | 49 | 270 | 0.0 | 0.0 | 0.00 | 0.67 | 0.00 | 99 | 1015.2 |
| 20260503002534 | 49 | 270 | 0.0 | 0.0 | 0.00 | 0.67 | 0.00 | 99 | 1015.4 |
| 20260503001527 | 49 | 270 | 0.0 | 0.0 | 0.00 | 0.67 | 0.00 | 99 | 1015.6 |
| 20260502235513 | 49 | 270 | 0.0 | 0.0 | 0.00 | 0.67 | 0.00 | 99 | 1015.7 |
| 20260502234506 | 50 | 270 | 0.0 | 0.0 | 0.00 | 0.67 | 0.00 | 99 | 1015.9 |
| 20260502233503 | 50 | 270 | 0.0 | 0.0 | 0.00 | 0.67 | 0.00 | 99 | 1015.9 |
| 20260502231445 | 50 | 270 | 0.0 | 0.0 | 0.00 | 0.67 | 0.00 | 99 | 1015.8 |
| 20260502230438 | 50 | 270 | 0.0 | 0.0 | 0.00 | 0.67 | 0.00 | 99 | 1015.8 |
| 20260502225431 | 50 | 270 | 0.0 | 0.0 | 0.00 | 0.67 | 0.00 | 99 | 1015.8 |
| 20260502224424 | 50 | 270 | 0.0 | 0.0 | 0.00 | 0.67 | 0.00 | 99 | 1015.7 |